Lee's Summit, MO

4:33 PM CDT on August 29, 2016 (GMT -0500)
Lee's Summit Municipal

Weather History for KLXT - September, 2012

Change the Weather History Date:

Sunday, September 23, 2012

  Actual Average (KMKC) Record (KMKC)
Temperature  
Mean Temperature 54 °F -  
Max Temperature 68 °F 75 °F 89 °F (2007)
Min Temperature 39 °F 54 °F 32 °F (1998)
Degree Days  
Heating Degree Days 12    
Growing Degree Days 4 (Base 50)    
Moisture  
Dew Point 35 °F    
Average Humidity 47    
Maximum Humidity 86    
Minimum Humidity 28    
Precipitation  
Precipitation 0.00 in - - ()
Sea Level Pressure  
Sea Level Pressure 30.28 in    
Wind  
Wind Speed 4 mph (ESE)    
Max Wind Speed 7 mph    
Max Gust Speed -    
Visibility 10 miles    
Events      
Averages and records for this station are not official NWS values.
T = Trace of Precipitation, MM = Missing Value Source: NWS Daily Summary

Daily Weather History Graph

Daily Weather History Graph

Search for Another Location

Airport or City:

Trip Planner

Search our weather history database for the weather conditions in past years. The results will help you decide how hot, cold, wet, or windy it might be!

Date:

Astronomy

Sep. 23, 2012 Rise Set
Actual Time 7:06 AM CDT 7:12 PM CDT
Civil Twilight 6:39 AM CDT 7:38 PM CDT
Nautical Twilight 6:08 AM CDT 8:09 PM CDT
Astronomical Twilight 5:37 AM CDT 8:41 PM CDT
Moon 3:11 PM CDT (9/23) 12:22 AM CDT (9/23)
Length of Visible Light 12h 58m
Length of Day
12h 05m
First Quarter, 60% of the Moon is Illuminated
Sep 23
First Quarter
Sep 29
Full
Oct 8
Last Quarter
Oct 15
New
Oct 21
First Quarter

Hourly Weather History & Observations

Time (CDT) Temp. Windchill Dew Point Humidity Pressure Visibility Wind Dir Wind Speed Gust Speed Precip Events Conditions
12:53 AM 48.0 °F - 35.1 °F 61% 30.28 in 10.0 mi NE 3.5 mph - N/A   Clear
1:53 AM 48.9 °F - 35.1 °F 59% 30.28 in 10.0 mi NNE 3.5 mph - N/A   Clear
2:53 AM 46.0 °F 44.8 °F 35.1 °F 66% 30.27 in 10.0 mi NE 3.5 mph - N/A   Clear
3:53 AM 46.9 °F - 41.0 °F 80% 30.28 in 10.0 mi Calm Calm - N/A   Clear
4:53 AM 39.0 °F 36.8 °F 35.1 °F 86% 30.30 in 10.0 mi SW 3.5 mph - N/A   Clear
5:53 AM 43.0 °F - 37.0 °F 80% 30.31 in 10.0 mi Calm Calm - N/A   Clear
8:53 AM 51.1 °F - 37.0 °F 59% 30.35 in 10.0 mi SSE 4.6 mph - N/A   Clear
9:53 AM 55.9 °F - 37.0 °F 49% 30.36 in 10.0 mi SE 3.5 mph - N/A   Clear
10:53 AM 59.0 °F - 35.1 °F 41% 30.36 in 10.0 mi Variable 3.5 mph - N/A   Clear
11:53 AM 62.1 °F - 35.1 °F 37% 30.35 in 10.0 mi Variable 3.5 mph - N/A   Clear
12:53 PM 63.0 °F - 34.0 °F 34% 30.33 in 10.0 mi ENE 3.5 mph - N/A   Clear
1:53 PM 66.0 °F - 32.0 °F 28% 30.31 in 10.0 mi NNE 6.9 mph - N/A   Clear
2:53 PM 66.0 °F - 32.0 °F 28% 30.28 in 10.0 mi SE 4.6 mph - N/A   Clear
3:53 PM 66.9 °F - 33.1 °F 28% 30.26 in 10.0 mi ENE 5.8 mph - N/A   Clear
4:53 PM 68.0 °F - 35.1 °F 30% 30.25 in 10.0 mi ESE 4.6 mph - N/A   Clear
5:53 PM 66.0 °F - 35.1 °F 32% 30.24 in 10.0 mi East 6.9 mph - N/A   Clear
6:53 PM 64.0 °F - 35.1 °F 34% 30.25 in 10.0 mi SE 3.5 mph - N/A   Clear
7:53 PM 62.1 °F - 36.0 °F 38% 30.24 in 10.0 mi SE 3.5 mph - N/A   Clear
8:53 PM 60.1 °F - 36.0 °F 41% 30.24 in 10.0 mi ESE 4.6 mph - N/A   Clear
9:53 PM 59.0 °F - 36.0 °F 42% 30.24 in 10.0 mi SE 3.5 mph - N/A   Clear
10:53 PM 57.0 °F - 35.1 °F 44% 30.24 in 10.0 mi SE 3.5 mph - N/A   Clear
11:53 PM 57.0 °F - 34.0 °F 42% 30.23 in 10.0 mi SE 5.8 mph - N/A   Clear